Station Historical Data
Daily Summary for June 20, 2017 Units:  English    Metric   Both
« Previous Day
Next Day »
Daily Weekly Monthly Yearly Custom
  High: Low: Average:
Temperature: 72.1 °F 60.1 °F 67.1 °F
Dew Point: 61.9 °F 54.3 °F 58.1 °F
Humidity: 87% 64% 73%
Wind Speed: 19.0mph 0.0mph 7.2mph
Wind Gust: 29.0mph - -
Wind- - WSW
Pressure: 29.93 in 29.74 in -
Precipitation: 0.00 in    
Historical Graphs
 
 
Tabular Data for June 20, 2017
Time Temperature Dew Point Pressure Wind Wind Speed Wind Gust Humidity Rainfall Rate (Hourly)
00:04 66.6 °F 58.8 °F 29.78 in SSW 7.0 mph 10.0 mph 76% 0.00 in
00:09 66.6 °F 59.2 °F 29.79 in SW 7.0 mph 12.0 mph 77% 0.00 in
00:14 66.5 °F 59.1 °F 29.78 in SW 6.0 mph 12.0 mph 77% 0.00 in
00:19 66.5 °F 59.1 °F 29.78 in SW 5.0 mph 11.0 mph 77% 0.00 in
00:24 66.4 °F 59.3 °F 29.78 in SW 5.0 mph 11.0 mph 78% 0.00 in
00:29 66.4 °F 59.3 °F 29.78 in WSW 5.0 mph 10.0 mph 78% 0.00 in
00:34 66.4 °F 59.7 °F 29.78 in WSW 11.0 mph 11.0 mph 79% 0.00 in
00:39 66.4 °F 59.7 °F 29.77 in SSW 4.0 mph 11.0 mph 79% 0.00 in
00:44 66.5 °F 60.1 °F 29.78 in WSW 5.0 mph 11.0 mph 80% 0.00 in
00:49 66.6 °F 60.2 °F 29.78 in WSW 10.0 mph 13.0 mph 80% 0.00 in
00:54 66.6 °F 60.2 °F 29.78 in WSW 8.0 mph 17.0 mph 80% 0.00 in
00:59 66.6 °F 59.9 °F 29.77 in SW 10.0 mph 14.0 mph 79% 0.00 in
01:04 66.6 °F 59.9 °F 29.77 in SW 5.0 mph 15.0 mph 79% 0.00 in
01:09 66.5 °F 59.8 °F 29.77 in SW 6.0 mph 10.0 mph 79% 0.00 in
01:14 66.5 °F 59.8 °F 29.77 in WSW 6.0 mph 16.0 mph 79% 0.00 in
01:19 66.5 °F 59.8 °F 29.77 in WSW 6.0 mph 16.0 mph 79% 0.00 in
01:24 66.4 °F 59.7 °F 29.76 in WSW 6.0 mph 13.0 mph 79% 0.00 in
01:29 66.4 °F 59.7 °F 29.76 in WSW 7.0 mph 15.0 mph 79% 0.00 in
01:34 66.3 °F 59.6 °F 29.77 in SW 6.0 mph 15.0 mph 79% 0.00 in
01:39 66.1 °F 59.4 °F 29.77 in SW 6.0 mph 16.0 mph 79% 0.00 in
01:44 66.0 °F 58.9 °F 29.76 in WSW 4.0 mph 15.0 mph 78% 0.00 in
01:49 65.9 °F 58.8 °F 29.76 in WSW 10.0 mph 12.0 mph 78% 0.00 in
01:54 65.9 °F 58.8 °F 29.77 in West 10.0 mph 17.0 mph 78% 0.00 in
01:59 65.8 °F 58.7 °F 29.76 in SW 4.0 mph 13.0 mph 78% 0.00 in
02:04 65.8 °F 58.7 °F 29.77 in West 5.0 mph 12.0 mph 78% 0.00 in
02:09 65.8 °F 58.7 °F 29.76 in SW 7.0 mph 15.0 mph 78% 0.00 in
02:14 65.5 °F 58.5 °F 29.77 in WSW 6.0 mph 15.0 mph 78% 0.00 in
02:19 65.4 °F 58.7 °F 29.77 in West 7.0 mph 14.0 mph 79% 0.00 in
02:24 65.3 °F 58.6 °F 29.77 in WSW 5.0 mph 14.0 mph 79% 0.00 in
02:29 65.3 °F 58.3 °F 29.77 in SW 4.0 mph 12.0 mph 78% 0.00 in
02:34 65.3 °F 58.3 °F 29.76 in NW 5.0 mph 16.0 mph 78% 0.00 in
02:39 65.3 °F 58.3 °F 29.77 in SW 7.0 mph 16.0 mph 78% 0.00 in
02:44 65.3 °F 58.3 °F 29.76 in SW 6.0 mph 13.0 mph 78% 0.00 in
02:49 65.3 °F 58.6 °F 29.77 in WSW 6.0 mph 14.0 mph 79% 0.00 in
02:54 65.3 °F 58.6 °F 29.77 in WSW 6.0 mph 15.0 mph 79% 0.00 in
02:59 65.3 °F 58.3 °F 29.76 in SW 7.0 mph 15.0 mph 78% 0.00 in
03:04 65.4 °F 58.4 °F 29.76 in SW 8.0 mph 18.0 mph 78% 0.00 in
03:09 65.4 °F 58.4 °F 29.76 in WSW 5.0 mph 16.0 mph 78% 0.00 in
03:14 65.4 °F 58.4 °F 29.75 in WSW 8.0 mph 12.0 mph 78% 0.00 in
03:19 65.4 °F 58.4 °F 29.75 in WSW 4.0 mph 12.0 mph 78% 0.00 in
03:24 65.4 °F 58.4 °F 29.74 in WSW 4.0 mph 15.0 mph 78% 0.00 in
03:29 65.2 °F 58.5 °F 29.74 in SSW 4.0 mph 10.0 mph 79% 0.00 in
03:34 65.0 °F 58.3 °F 29.74 in WSW 2.0 mph 10.0 mph 79% 0.00 in
03:39 64.8 °F 58.5 °F 29.74 in SW 5.0 mph 12.0 mph 80% 0.00 in
03:44 64.7 °F 58.4 °F 29.75 in SW 5.0 mph 12.0 mph 80% 0.00 in
03:49 64.6 °F 58.6 °F 29.75 in SW 5.0 mph 11.0 mph 81% 0.00 in
03:54 64.4 °F 58.4 °F 29.75 in SW 5.0 mph 6.0 mph 81% 0.00 in
03:59 64.3 °F 58.0 °F 29.75 in SSW 5.0 mph 9.0 mph 80% 0.00 in
04:04 64.2 °F 57.9 °F 29.75 in WSW 5.0 mph 12.0 mph 80% 0.00 in
04:09 64.0 °F 57.7 °F 29.76 in SW 6.0 mph 12.0 mph 80% 0.00 in
04:14 63.9 °F 58.0 °F 29.76 in SSW 7.0 mph 12.0 mph 81% 0.00 in
04:19 63.9 °F 58.0 °F 29.76 in WNW 7.0 mph 10.0 mph 81% 0.00 in
04:24 63.9 °F 57.6 °F 29.76 in WSW 2.0 mph 12.0 mph 80% 0.00 in
04:29 63.8 °F 57.2 °F 29.77 in WSW 10.0 mph 13.0 mph 79% 0.00 in
04:34 63.8 °F 57.2 °F 29.77 in WSW 7.0 mph 13.0 mph 79% 0.00 in
04:39 63.8 °F 57.2 °F 29.77 in WSW 7.0 mph 15.0 mph 79% 0.00 in
04:44 63.8 °F 57.2 °F 29.77 in West 6.0 mph 15.0 mph 79% 0.00 in
04:49 63.9 °F 57.3 °F 29.77 in WSW 6.0 mph 13.0 mph 79% 0.00 in
04:54 63.8 °F 57.2 °F 29.77 in WSW 7.0 mph 20.0 mph 79% 0.00 in
04:59 63.9 °F 57.3 °F 29.77 in West 8.0 mph 18.0 mph 79% 0.00 in
05:04 63.9 °F 57.3 °F 29.77 in SW 8.0 mph 18.0 mph 79% 0.00 in
05:09 63.9 °F 57.3 °F 29.78 in WSW 8.0 mph 16.0 mph 79% 0.00 in
05:14 64.0 °F 57.0 °F 29.78 in WSW 8.0 mph 16.0 mph 78% 0.00 in
05:19 64.0 °F 57.4 °F 29.78 in WSW 8.0 mph 15.0 mph 79% 0.00 in
05:24 64.0 °F 57.4 °F 29.78 in SW 7.0 mph 15.0 mph 79% 0.00 in
05:29 64.1 °F 57.5 °F 29.78 in WNW 3.0 mph 10.0 mph 79% 0.00 in
05:34 64.1 °F 57.5 °F 29.78 in West 5.0 mph 11.0 mph 79% 0.00 in
05:39 64.0 °F 56.6 °F 29.78 in WSW 8.0 mph 16.0 mph 77% 0.00 in
05:44 63.9 °F 56.2 °F 29.78 in WSW 6.0 mph 15.0 mph 76% 0.00 in
05:49 63.9 °F 56.2 °F 29.79 in WSW 3.0 mph 12.0 mph 76% 0.00 in
05:54 63.9 °F 56.2 °F 29.79 in WNW 9.0 mph 11.0 mph 76% 0.00 in
05:59 63.9 °F 56.2 °F 29.79 in West 4.0 mph 11.0 mph 76% 0.00 in
06:04 64.0 °F 56.3 °F 29.79 in WSW 7.0 mph 17.0 mph 76% 0.00 in
06:09 64.0 °F 56.3 °F 29.79 in WSW 7.0 mph 17.0 mph 76% 0.00 in
06:14 64.1 °F 56.4 °F 29.80 in West 7.0 mph 13.0 mph 76% 0.00 in
06:19 64.1 °F 56.0 °F 29.80 in West 6.0 mph 13.0 mph 75% 0.00 in
06:24 64.1 °F 56.0 °F 29.80 in West 6.0 mph 10.0 mph 75% 0.00 in
06:29 64.0 °F 55.9 °F 29.81 in WSW 10.0 mph 12.0 mph 75% 0.00 in
06:34 64.1 °F 55.6 °F 29.81 in West 4.0 mph 13.0 mph 74% 0.00 in
06:39 64.1 °F 55.6 °F 29.81 in West 7.0 mph 9.0 mph 74% 0.00 in
06:44 64.1 °F 55.6 °F 29.81 in SW 4.0 mph 9.0 mph 74% 0.00 in
06:49 64.1 °F 55.3 °F 29.82 in WSW 4.0 mph 10.0 mph 73% 0.00 in
06:54 64.2 °F 55.7 °F 29.82 in WSW 2.0 mph 7.0 mph 74% 0.00 in
06:59 64.2 °F 55.7 °F 29.82 in West 4.0 mph 6.0 mph 74% 0.00 in
07:04 64.2 °F 55.7 °F 29.82 in West 4.0 mph 10.0 mph 74% 0.00 in
07:09 64.4 °F 55.9 °F 29.82 in West 5.0 mph 10.0 mph 74% 0.00 in
07:14 64.6 °F 55.7 °F 29.82 in West 4.0 mph 9.0 mph 73% 0.00 in
07:19 64.4 °F 55.9 °F 29.82 in WSW 4.0 mph 9.0 mph 74% 0.00 in
07:24 64.5 °F 56.4 °F 29.82 in West 4.0 mph 7.0 mph 75% 0.00 in
07:29 64.8 °F 56.7 °F 29.83 in WSW 8.0 mph 12.0 mph 75% 0.00 in
07:34 65.1 °F 57.0 °F 29.83 in WSW 5.0 mph 12.0 mph 75% 0.00 in
07:39 65.4 °F 57.3 °F 29.83 in West 6.0 mph 11.0 mph 75% 0.00 in
07:44 65.7 °F 57.9 °F 29.83 in WSW 6.0 mph 13.0 mph 76% 0.00 in
07:49 65.4 °F 57.6 °F 29.83 in WSW 7.0 mph 15.0 mph 76% 0.00 in
07:54 65.3 °F 57.9 °F 29.84 in WSW 8.0 mph 14.0 mph 77% 0.00 in
07:59 65.2 °F 58.2 °F 29.84 in West 4.0 mph 13.0 mph 78% 0.00 in
08:04 65.3 °F 57.9 °F 29.84 in WSW 8.0 mph 17.0 mph 77% 0.00 in
08:09 66.1 °F 58.7 °F 29.85 in West 10.0 mph 13.0 mph 77% 0.00 in
08:14 66.4 °F 58.2 °F 29.84 in SW 4.0 mph 15.0 mph 75% 0.00 in
08:19 65.8 °F 58.0 °F 29.84 in SW 11.0 mph 12.0 mph 76% 0.00 in
08:24 65.4 °F 58.0 °F 29.84 in SW 2.0 mph 11.0 mph 77% 0.00 in
08:29 65.3 °F 58.3 °F 29.85 in WSW 5.0 mph 11.0 mph 78% 0.00 in
08:34 65.3 °F 58.3 °F 29.85 in WSW 5.0 mph 15.0 mph 78% 0.00 in
08:39 65.3 °F 58.6 °F 29.85 in WSW 6.0 mph 15.0 mph 79% 0.00 in
08:44 65.6 °F 58.9 °F 29.85 in WSW 5.0 mph 13.0 mph 79% 0.00 in
08:49 65.9 °F 58.5 °F 29.85 in WSW 6.0 mph 9.0 mph 77% 0.00 in
08:54 66.0 °F 58.2 °F 29.85 in West 10.0 mph 14.0 mph 76% 0.00 in
08:59 66.1 °F 57.9 °F 29.86 in WSW 7.0 mph 14.0 mph 75% 0.00 in
09:04 65.5 °F 57.4 °F 29.86 in WSW 7.0 mph 14.0 mph 75% 0.00 in
09:14 65.2 °F 57.1 °F 29.86 in SW 9.0 mph 15.0 mph 75% 0.00 in
09:19 65.3 °F 57.2 °F 29.86 in West 4.0 mph 10.0 mph 75% 0.00 in
09:24 65.5 °F 57.0 °F 29.86 in SW 6.0 mph 12.0 mph 74% 0.00 in
09:29 65.6 °F 56.7 °F 29.86 in SW 6.0 mph 15.0 mph 73% 0.00 in
09:34 65.7 °F 56.8 °F 29.86 in WSW 6.0 mph 11.0 mph 73% 0.00 in
09:39 66.1 °F 57.6 °F 29.86 in West 4.0 mph 12.0 mph 74% 0.00 in
09:44 66.7 °F 57.4 °F 29.86 in NW 8.0 mph 15.0 mph 72% 0.00 in
09:49 66.4 °F 56.7 °F 29.86 in SW 11.0 mph 17.0 mph 71% 0.00 in
09:54 66.3 °F 57.0 °F 29.86 in WSW 8.0 mph 17.0 mph 72% 0.00 in
09:59 66.4 °F 57.1 °F 29.86 in SW 7.0 mph 15.0 mph 72% 0.00 in
10:04 67.0 °F 58.1 °F 29.86 in WSW 7.0 mph 15.0 mph 73% 0.00 in
10:09 67.7 °F 58.3 °F 29.87 in WSW 7.0 mph 19.0 mph 72% 0.00 in
10:14 68.8 °F 59.4 °F 29.86 in WSW 7.0 mph 19.0 mph 72% 0.00 in
10:19 69.0 °F 59.6 °F 29.86 in WSW 3.0 mph 15.0 mph 72% 0.00 in
10:24 69.8 °F 59.6 °F 29.86 in WSW 6.0 mph 18.0 mph 70% 0.00 in
10:29 69.4 °F 59.2 °F 29.86 in WSW 7.0 mph 18.0 mph 70% 0.00 in
10:34 69.9 °F 58.9 °F 29.86 in WSW 12.0 mph 14.0 mph 68% 0.00 in
10:39 69.4 °F 59.2 °F 29.86 in West 5.0 mph 22.0 mph 70% 0.00 in
10:44 70.2 °F 60.0 °F 29.85 in West 6.0 mph 11.0 mph 70% 0.00 in
10:49 70.3 °F 59.2 °F 29.85 in WSW 10.0 mph 19.0 mph 68% 0.00 in
10:54 70.0 °F 59.4 °F 29.85 in WSW 8.0 mph 19.0 mph 69% 0.00 in
10:59 70.4 °F 60.5 °F 29.86 in WSW 8.0 mph 19.0 mph 71% 0.00 in
11:04 70.6 °F 60.3 °F 29.86 in WSW 7.0 mph 18.0 mph 70% 0.00 in
11:09 70.9 °F 60.6 °F 29.86 in WSW 8.0 mph 18.0 mph 70% 0.00 in
11:14 69.5 °F 59.3 °F 29.86 in West 9.0 mph 16.0 mph 70% 0.00 in
11:19 68.5 °F 59.5 °F 29.86 in WSW 13.0 mph 17.0 mph 73% 0.00 in
11:24 68.2 °F 59.6 °F 29.86 in WSW 8.0 mph 17.0 mph 74% 0.00 in
11:29 68.1 °F 59.1 °F 29.86 in WSW 9.0 mph 17.0 mph 73% 0.00 in
11:34 68.4 °F 59.8 °F 29.86 in WSW 9.0 mph 19.0 mph 74% 0.00 in
11:39 68.0 °F 59.8 °F 29.86 in WSW 9.0 mph 20.0 mph 75% 0.00 in
11:44 69.2 °F 59.8 °F 29.87 in WSW 12.0 mph 22.0 mph 72% 0.00 in
11:49 69.9 °F 59.7 °F 29.87 in WSW 12.0 mph 19.0 mph 70% 0.00 in
11:54 69.8 °F 59.2 °F 29.86 in West 14.0 mph 20.0 mph 69% 0.00 in
11:59 69.5 °F 60.1 °F 29.87 in SSW 10.0 mph 22.0 mph 72% 0.00 in
12:04 70.1 °F 59.5 °F 29.87 in WSW 10.0 mph 20.0 mph 69% 0.00 in
12:09 70.7 °F 60.4 °F 29.86 in WSW 2.0 mph 20.0 mph 70% 0.00 in
12:14 70.9 °F 60.6 °F 29.87 in South 12.0 mph 22.0 mph 70% 0.00 in
12:19 70.7 °F 60.8 °F 29.87 in SW 10.0 mph 22.0 mph 71% 0.00 in
12:24 69.8 °F 60.4 °F 29.86 in SW 11.0 mph 22.0 mph 72% 0.00 in
12:29 71.0 °F 60.3 °F 29.87 in SW 10.0 mph 22.0 mph 69% 0.00 in
12:34 70.3 °F 60.4 °F 29.87 in WSW 10.0 mph 22.0 mph 71% 0.00 in
12:39 70.7 °F 60.4 °F 29.87 in NW 8.0 mph 16.0 mph 70% 0.00 in
12:44 70.2 °F 60.4 °F 29.86 in WSW 13.0 mph 18.0 mph 71% 0.00 in
12:49 70.5 °F 60.2 °F 29.86 in SW 9.0 mph 18.0 mph 70% 0.00 in
12:54 70.3 °F 60.4 °F 29.86 in West 11.0 mph 18.0 mph 71% 0.00 in
12:59 70.7 °F 60.0 °F 29.86 in WSW 8.0 mph 19.0 mph 69% 0.00 in
13:04 70.8 °F 60.5 °F 29.86 in SW 14.0 mph 19.0 mph 70% 0.00 in
13:09 70.6 °F 60.3 °F 29.86 in SW 11.0 mph 22.0 mph 70% 0.00 in
13:14 71.0 °F 60.3 °F 29.86 in WSW 11.0 mph 23.0 mph 69% 0.00 in
13:19 70.8 °F 60.1 °F 29.86 in WSW 10.0 mph 24.0 mph 69% 0.00 in
13:24 71.4 °F 59.9 °F 29.86 in WSW 11.0 mph 24.0 mph 67% 0.00 in
13:29 71.3 °F 59.8 °F 29.86 in SW 11.0 mph 23.0 mph 67% 0.00 in
13:34 71.7 °F 60.2 °F 29.86 in SW 10.0 mph 25.0 mph 67% 0.00 in
13:39 70.8 °F 59.3 °F 29.86 in SW 9.0 mph 24.0 mph 67% 0.00 in
13:44 70.8 °F 60.1 °F 29.86 in SW 12.0 mph 24.0 mph 69% 0.00 in
13:49 70.7 °F 60.0 °F 29.86 in SW 11.0 mph 25.0 mph 69% 0.00 in
13:54 70.8 °F 58.9 °F 29.87 in SW 11.0 mph 25.0 mph 66% 0.00 in
13:59 70.5 °F 59.0 °F 29.87 in SW 18.0 mph 25.0 mph 67% 0.00 in
14:04 70.4 °F 59.3 °F 29.87 in WSW 12.0 mph 26.0 mph 68% 0.00 in
14:09 70.6 °F 59.1 °F 29.87 in SW 12.0 mph 25.0 mph 67% 0.00 in
14:14 70.6 °F 59.1 °F 29.86 in WSW 12.0 mph 25.0 mph 67% 0.00 in
14:19 70.3 °F 58.8 °F 29.87 in WSW 13.0 mph 21.0 mph 67% 0.00 in
14:24 70.3 °F 59.6 °F 29.87 in SSE 10.0 mph 23.0 mph 69% 0.00 in
14:29 70.8 °F 60.1 °F 29.87 in WSW 11.0 mph 23.0 mph 69% 0.00 in
14:34 70.8 °F 59.7 °F 29.86 in West 14.0 mph 21.0 mph 68% 0.00 in
14:39 70.9 °F 59.4 °F 29.87 in SW 9.0 mph 24.0 mph 67% 0.00 in
14:44 70.7 °F 59.2 °F 29.87 in WSW 12.0 mph 28.0 mph 67% 0.00 in
14:49 70.9 °F 59.4 °F 29.87 in WSW 12.0 mph 28.0 mph 67% 0.00 in
14:54 71.4 °F 59.4 °F 29.87 in WSW 11.0 mph 23.0 mph 66% 0.00 in
14:59 70.9 °F 59.4 °F 29.87 in WSW 12.0 mph 24.0 mph 67% 0.00 in
15:04 70.8 °F 59.7 °F 29.87 in WSW 13.0 mph 24.0 mph 68% 0.00 in
15:09 71.5 °F 60.0 °F 29.88 in WSW 11.0 mph 29.0 mph 67% 0.00 in
15:14 71.4 °F 59.9 °F 29.88 in West 10.0 mph 22.0 mph 67% 0.00 in
15:19 71.1 °F 59.6 °F 29.87 in SW 17.0 mph 22.0 mph 67% 0.00 in
15:24 71.4 °F 59.9 °F 29.86 in WSW 9.0 mph 21.0 mph 67% 0.00 in
15:29 72.1 °F 60.1 °F 29.87 in SW 8.0 mph 18.0 mph 66% 0.00 in
15:34 71.6 °F 60.1 °F 29.88 in WSW 8.0 mph 21.0 mph 67% 0.00 in
15:39 71.6 °F 60.5 °F 29.88 in SW 9.0 mph 22.0 mph 68% 0.00 in
15:44 71.5 °F 61.2 °F 29.88 in WSW 11.0 mph 22.0 mph 70% 0.00 in
15:49 70.9 °F 60.2 °F 29.88 in WSW 12.0 mph 25.0 mph 69% 0.00 in
15:54 70.4 °F 60.5 °F 29.88 in SSE 9.0 mph 18.0 mph 71% 0.00 in
15:59 69.6 °F 60.2 °F 29.89 in West 15.0 mph 21.0 mph 72% 0.00 in
16:04 69.3 °F 60.3 °F 29.88 in WSW 11.0 mph 22.0 mph 73% 0.00 in
16:09 68.6 °F 60.0 °F 29.88 in WSW 11.0 mph 22.0 mph 74% 0.00 in
16:14 68.0 °F 58.6 °F 29.89 in WSW 10.0 mph 22.0 mph 72% 0.00 in
16:19 67.4 °F 56.5 °F 29.89 in WSW 9.0 mph 20.0 mph 68% 0.00 in
16:24 68.1 °F 58.7 °F 29.89 in WSW 8.0 mph 21.0 mph 72% 0.00 in
16:29 69.4 °F 61.1 °F 29.88 in WSW 7.0 mph 22.0 mph 75% 0.00 in
16:34 69.5 °F 60.5 °F 29.88 in West 8.0 mph 18.0 mph 73% 0.00 in
16:39 70.4 °F 60.9 °F 29.89 in SW 14.0 mph 21.0 mph 72% 0.00 in
16:44 70.1 °F 60.3 °F 29.88 in West 13.0 mph 21.0 mph 71% 0.00 in
16:49 70.4 °F 61.3 °F 29.88 in West 13.0 mph 21.0 mph 73% 0.00 in
16:54 70.7 °F 61.2 °F 29.88 in West 6.0 mph 22.0 mph 72% 0.00 in
16:59 70.4 °F 60.5 °F 29.88 in SW 12.0 mph 19.0 mph 71% 0.00 in
17:04 70.4 °F 60.5 °F 29.88 in West 17.0 mph 23.0 mph 71% 0.00 in
17:09 70.3 °F 60.4 °F 29.89 in WSW 11.0 mph 23.0 mph 71% 0.00 in
17:14 70.3 °F 60.8 °F 29.89 in WSW 10.0 mph 21.0 mph 72% 0.00 in
17:19 70.6 °F 61.9 °F 29.89 in WSW 9.0 mph 21.0 mph 74% 0.00 in
17:24 70.5 °F 61.0 °F 29.89 in WSW 8.0 mph 18.0 mph 72% 0.00 in
17:29 70.3 °F 60.8 °F 29.88 in SW 9.0 mph 19.0 mph 72% 0.00 in
17:34 70.3 °F 60.8 °F 29.88 in WSW 8.0 mph 21.0 mph 72% 0.00 in
17:39 70.1 °F 59.9 °F 29.88 in SW 11.0 mph 27.0 mph 70% 0.00 in
17:44 70.0 °F 60.2 °F 29.88 in WNW 7.0 mph 19.0 mph 71% 0.00 in
17:49 70.1 °F 59.9 °F 29.88 in WSW 13.0 mph 18.0 mph 70% 0.00 in
17:54 70.2 °F 60.4 °F 29.88 in SW 5.0 mph 23.0 mph 71% 0.00 in
17:59 70.6 °F 59.5 °F 29.88 in WSW 8.0 mph 16.0 mph 68% 0.00 in
18:04 70.5 °F 58.6 °F 29.88 in WSW 8.0 mph 18.0 mph 66% 0.00 in
18:09 70.2 °F 58.7 °F 29.88 in WSW 9.0 mph 20.0 mph 67% 0.00 in
18:14 69.9 °F 58.4 °F 29.88 in WSW 10.0 mph 20.0 mph 67% 0.00 in
18:19 69.8 °F 58.3 °F 29.88 in SW 11.0 mph 20.0 mph 67% 0.00 in
18:24 69.7 °F 58.3 °F 29.88 in SW 9.0 mph 22.0 mph 67% 0.00 in
18:29 69.8 °F 58.3 °F 29.88 in SSW 9.0 mph 18.0 mph 67% 0.00 in
18:34 69.8 °F 58.3 °F 29.88 in SW 9.0 mph 18.0 mph 67% 0.00 in
18:39 69.6 °F 58.2 °F 29.88 in WSW 5.0 mph 19.0 mph 67% 0.00 in
18:44 69.9 °F 58.9 °F 29.88 in SW 7.0 mph 16.0 mph 68% 0.00 in
18:49 69.7 °F 58.7 °F 29.88 in SW 13.0 mph 17.0 mph 68% 0.00 in
18:54 69.5 °F 58.5 °F 29.89 in SSW 10.0 mph 17.0 mph 68% 0.00 in
18:59 69.4 °F 58.4 °F 29.89 in WSW 7.0 mph 17.0 mph 68% 0.00 in
19:04 69.4 °F 58.4 °F 29.89 in SW 9.0 mph 18.0 mph 68% 0.00 in
19:09 69.2 °F 57.8 °F 29.89 in SW 19.0 mph 19.0 mph 67% 0.00 in
19:14 69.0 °F 57.6 °F 29.89 in SW 9.0 mph 20.0 mph 67% 0.00 in
19:19 69.0 °F 57.6 °F 29.89 in SSE 4.0 mph 15.0 mph 67% 0.00 in
19:24 69.0 °F 57.2 °F 29.89 in SW 11.0 mph 18.0 mph 66% 0.00 in
19:29 69.0 °F 56.7 °F 29.89 in WSW 9.0 mph 18.0 mph 65% 0.00 in
19:34 68.9 °F 56.6 °F 29.89 in SW 8.0 mph 17.0 mph 65% 0.00 in
19:39 69.0 °F 56.7 °F 29.89 in West 11.0 mph 12.0 mph 65% 0.00 in
19:44 69.0 °F 56.3 °F 29.89 in West 8.0 mph 16.0 mph 64% 0.00 in
19:49 68.7 °F 56.0 °F 29.88 in West 10.0 mph 14.0 mph 64% 0.00 in
19:54 68.5 °F 56.3 °F 29.89 in SSW 7.0 mph 11.0 mph 65% 0.00 in
19:59 68.4 °F 56.2 °F 29.89 in WSW 6.0 mph 11.0 mph 65% 0.00 in
20:04 68.2 °F 56.0 °F 29.88 in WSW 6.0 mph 15.0 mph 65% 0.00 in
20:09 68.2 °F 56.0 °F 29.88 in SSW 4.0 mph 12.0 mph 65% 0.00 in
20:14 68.1 °F 55.9 °F 29.88 in SW 3.0 mph 11.0 mph 65% 0.00 in
20:19 68.0 °F 55.8 °F 29.88 in SSW 2.0 mph 9.0 mph 65% 0.00 in
20:24 67.9 °F 55.3 °F 29.88 in SSW 5.0 mph 11.0 mph 64% 0.00 in
20:29 67.8 °F 55.2 °F 29.87 in SW 5.0 mph 11.0 mph 64% 0.00 in
20:34 67.7 °F 55.1 °F 29.87 in SW 4.0 mph 10.0 mph 64% 0.00 in
20:39 67.6 °F 55.4 °F 29.87 in SW 4.0 mph 10.0 mph 65% 0.00 in
20:44 67.6 °F 55.4 °F 29.87 in SW 4.0 mph 10.0 mph 65% 0.00 in
20:49 67.4 °F 55.6 °F 29.87 in SSW 2.0 mph 7.0 mph 66% 0.00 in
20:54 67.4 °F 56.1 °F 29.88 in SW 3.0 mph 7.0 mph 67% 0.00 in
20:59 67.4 °F 56.1 °F 29.88 in WSW 5.0 mph 9.0 mph 67% 0.00 in
21:04 67.6 °F 56.2 °F 29.88 in SSW 5.0 mph 7.0 mph 67% 0.00 in
21:09 67.7 °F 56.3 °F 29.88 in South 3.0 mph 10.0 mph 67% 0.00 in
21:14 67.7 °F 56.3 °F 29.88 in South 4.0 mph 7.0 mph 67% 0.00 in
21:19 67.7 °F 55.9 °F 29.87 in SW 5.0 mph 7.0 mph 66% 0.00 in
21:24 67.9 °F 56.1 °F 29.87 in SW 4.0 mph 8.0 mph 66% 0.00 in
21:29 67.9 °F 55.7 °F 29.88 in WSW 3.0 mph 8.0 mph 65% 0.00 in
21:34 68.1 °F 55.5 °F 29.88 in WSW 4.0 mph 10.0 mph 64% 0.00 in
21:39 68.2 °F 55.6 °F 29.88 in WSW 5.0 mph 10.0 mph 64% 0.00 in
21:44 68.3 °F 56.1 °F 29.88 in WSW 2.0 mph 10.0 mph 65% 0.00 in
21:49 68.3 °F 56.5 °F 29.89 in NW 5.0 mph 9.0 mph 66% 0.00 in
21:54 68.2 °F 56.4 °F 29.90 in West 5.0 mph 11.0 mph 66% 0.00 in
21:59 66.6 °F 55.3 °F 29.91 in NW 6.0 mph 13.0 mph 67% 0.00 in
22:04 64.3 °F 54.7 °F 29.91 in North 4.0 mph 10.0 mph 71% 0.00 in
22:09 62.8 °F 54.4 °F 29.92 in West 5.0 mph 15.0 mph 74% 0.00 in
22:14 62.0 °F 54.3 °F 29.91 in WNW 3.0 mph 8.0 mph 76% 0.00 in
22:19 61.6 °F 54.3 °F 29.91 in West 3.0 mph 9.0 mph 77% 0.00 in
22:24 61.4 °F 54.5 °F 29.91 in NNW 3.0 mph 9.0 mph 78% 0.00 in
22:29 61.2 °F 54.3 °F 29.92 in NW 3.0 mph 6.0 mph 78% 0.00 in
22:34 61.3 °F 54.4 °F 29.92 in NW 3.0 mph 8.0 mph 78% 0.00 in
22:39 61.3 °F 54.4 °F 29.92 in NW 3.0 mph 8.0 mph 78% 0.00 in
22:44 61.2 °F 54.6 °F 29.92 in NW 3.0 mph 6.0 mph 79% 0.00 in
22:49 61.0 °F 54.8 °F 29.93 in West 3.0 mph 6.0 mph 80% 0.00 in
22:54 60.8 °F 55.3 °F 29.93 in WNW 3.0 mph 6.0 mph 82% 0.00 in
22:59 60.6 °F 55.1 °F 29.93 in West 1.0 mph 6.0 mph 82% 0.00 in
23:04 60.4 °F 55.2 °F 29.93 in Calm   3.0 mph 83% 0.00 in
23:09 60.3 °F 55.4 °F 29.92 in SSE 1.0 mph 4.0 mph 84% 0.00 in
23:14 60.3 °F 55.4 °F 29.93 in SW 1.0 mph 4.0 mph 84% 0.01 in
23:19 60.2 °F 55.7 °F 29.91 in East 5.0 mph 6.0 mph 85% 0.02 in
23:24 60.1 °F 55.6 °F 29.91 in South 1.0 mph 6.0 mph 85% 0.02 in
23:29 60.1 °F 55.9 °F 29.92 in South 1.0 mph 5.0 mph 86% 0.02 in
23:34 60.1 °F 55.9 °F 29.91 in South 2.0 mph 5.0 mph 86% 0.02 in
23:39 60.2 °F 56.0 °F 29.91 in South 1.0 mph 5.0 mph 86% 0.02 in
23:44 60.2 °F 56.0 °F 29.90 in SSE 1.0 mph 3.0 mph 86% 0.03 in
23:49 60.3 °F 56.4 °F 29.90 in SSE 2.0 mph 4.0 mph 87% 0.03 in
23:54 60.3 °F 56.4 °F 29.90 in South 1.0 mph 3.0 mph 87% 0.03 in
23:59 60.3 °F 56.4 °F 29.90 in South 1.0 mph 3.0 mph 87% 0.03 in
Buffalo, New York, USA
Compliments of Weather Underground - 2.5 mb